Location: Mt. Cuba Astronomical Observatory
(39.8100°N, 75.6300°W)
Time: 20:10:24
(UTC-05:00)

Daily predictions for brighter satellites

Satellite Brightness Start Highest point End
(mag) Time Altitude Azimuth Time Altitude Azimuth Time Altitude Azimuth
Cosmos 2279 Rocket 4.1 17:38:07 10° N 17:44:12 54° E 17:50:18 10° SSE
Lacrosse 4 Rocket 3.0 17:43:32 10° NNE 17:45:49 14° NE 17:48:06 10° E
Meteor 1-28 Rocket 4.2 17:42:49 10° NE 17:45:58 26° E 17:49:07 10° SSE
Cosmos 1151 Rocket 3.1 17:42:46 10° N 17:47:04 87° W 17:51:22 10° S
Cosmos 372 Rocket 4.0 17:46:36 10° NNW 17:51:44 89° ENE 17:56:49 10° SSE
IDEFIX/ARIANE 42P 3.4 17:46:49 10° S 17:51:56 56° W 17:57:06 10° NNW
Cosmos 540 Rocket 4.0 17:48:50 10° SSW 17:53:57 63° WNW 17:59:06 10° NNE
Aureole 2 Rocket 2.9 17:50:24 10° SSW 17:54:08 74° WNW 17:58:13 10° NNE
Tiangong 1 3.4 17:54:23 10° SSE 17:55:18 11° SE 17:56:13 10° SE
USA 215 3.9 17:54:13 10° E 18:00:05 36° NNE 18:05:56 10° NW
Cosmos 2058 2.9 17:56:59 10° S 18:01:05 87° WNW 18:05:12 10° N
Nadezhda 4 Rocket 4.4 17:57:05 10° SSE 18:02:52 41° E 18:08:43 10° NNE
Cosmos 1805 Rocket 3.6 18:00:21 10° S 18:04:43 58° E 18:09:07 10° NNE
Lacrosse 5 4.1 18:03:40 10° NNW 18:04:56 11° N 18:06:12 10° NNE
Cosmos 1461 2.9 18:03:30 10° SSW 18:07:42 81° WNW 18:11:47 10° NNE
SKYMED 2 3.5 18:03:34 10° NNE 18:07:56 76° ESE 18:12:16 10° S
Cosmos 1900 4.3 18:03:41 10° NNW 18:08:38 67° ENE 18:13:37 10° SE
Cosmos 2180 Rocket 4.4 18:07:06 10° N 18:13:18 77° E 18:19:32 10° S
Cosmos 1626 2.2 18:10:13 10° S 18:13:51 54° E 18:17:32 10° NNE
Aureole 1 Rocket 4.2 18:10:56 10° S 18:16:00 45° E 18:22:34 10° NNE
Sich 1 3.2 18:13:28 10° S 18:17:47 52° E 18:22:05 10° NNE
Cosmos 2219 Rocket 4.2 18:14:52 10° WSW 18:19:24 24° NW 18:23:57 10° N
Cosmos 1356 Rocket 3.2 18:17:11 10° S 18:21:07 67° E 18:25:06 10° NNE
Lacrosse 5 rocket 2.8 18:17:46 10° WNW 18:21:18 36° SW 18:24:59 10° SSE
ALOS 3.2 18:20:06 10° SE 18:23:57 26° ENE 18:27:50 10° NNE
Cosmos 1092 Rocket 4.3 18:19:15 10° SSE 18:25:12 45° E 18:31:10 10° NNE
Cosmos 2333 Rocket 4.1 18:21:24 10° WSW 18:26:10 27° NW 18:30:58 10° N
Cosmos 1603 4.2 18:21:32 10° S 18:26:38 37° ESE 18:30:06 18° NE
Cosmos 1633 Rocket 3.0 18:23:47 10° S 18:28:06 59° E 18:32:26 10° NNE
Cosmos 292 Rocket 4.3 18:29:20 10° SSE 18:33:40 36° ESE 18:35:32 26° ENE
Coronas F rocket 1.7 18:31:55 10° S 18:33:37 37° SSE 18:33:37 37° SSE
Cosmos 2278 Rocket 4.1 18:29:17 10° NW 18:34:16 32° WSW 18:39:13 10° SSW
Cosmos 1455 2.0 18:32:50 10° N 18:36:39 77° E 18:40:28 10° S
FAST Rocket 4.3 18:36:00 10° SSW 18:38:35 64° W 18:41:28 10° N
USA 229 DEB 3.6 18:35:02 10° SSW 18:41:50 72° ESE 18:47:09 18° NE
USA 229 3.6 18:35:08 10° SSW 18:41:55 71° ESE 18:47:12 18° NE
Abrixas 4.4 18:40:26 10° WNW 18:42:36 19° NNW 18:42:57 18° N
Cosmos 1703 4.5 18:41:04 10° SSW 18:44:45 42° W 18:48:29 10° N
Cosmos 1184 Rocket 3.0 18:42:53 10° SSW 18:46:12 70° W 18:48:43 16° N
SJ-6B 2.8 18:44:17 10° SSE 18:48:22 82° ENE 18:52:31 10° N
Spot 2 Rocket 3.7 18:44:15 10° SE 18:48:59 44° ENE 18:53:45 10° N
Iridium 4 Rocket 2.9 18:48:27 10° S 18:52:54 68° E 18:57:07 10° N
Cosmos 1707 Rocket 4.5 18:50:22 10° NNW 18:54:33 49° W 18:58:44 10° SSW
COSMO-SKYMED 1 4.4 18:52:00 10° N 18:55:50 31° WNW 18:59:38 10° SW
SL-19 R/B 4.2 18:50:37 10° SSE 18:56:24 67° ENE 19:01:58 10° N
Cosmos 2237 Rocket 4.4 18:53:41 10° W 18:57:48 20° NW 19:01:57 10° N
Cosmos 2369 Rocket 3.2 18:57:13 10° N 19:01:00 28° NE 19:01:00 28° NE
H-2A ROCKET BODY 3.8 18:43:24 10° WSW 19:05:41 42° SSW 19:09:18 23° SE
SL-16 R/B 3.5 19:00:37 10° SW 19:05:50 38° WNW 19:11:06 10° N
FREGAT/IRIS 3.7 19:04:06 10° S 19:07:03 46° W 19:10:01 10° NNW
Resurs 01 Rocket 1.4 19:12:15 46° SSE 19:13:32 79° ENE 19:17:59 10° N
Cosmos 923 Rocket 4.0 19:09:04 10° SSW 19:14:16 79° WNW 19:16:59 29° NNE
Cosmos 1933 Rocket 3.5 19:11:19 10° S 19:15:45 89° NW 19:16:31 61° N
Cosmos 1680 Rocket 3.4 19:15:28 10° SSW 19:20:41 90° WNW 19:22:05 50° NNE
Cosmos 1655 Rocket 3.9 19:15:50 10° S 19:22:05 62° E 19:24:06 42° NE
Cosmos 1627 Rocket 4.3 19:18:17 10° S 19:24:28 84° E 19:30:38 10° N
CZ-4C R/B 4.2 19:19:43 10° NNW 19:23:28 20° NNE 19:23:28 20° NNE
Lacrosse 4 Rocket 2.0 19:20:54 10° NW 19:24:51 53° WSW 19:25:17 50° SW
FENGYUN 3A 3.8 19:24:35 10° S 19:29:55 73° WSW 19:35:19 10° NNW
Tiangong 1 3.9 19:28:00 10° WSW 19:28:39 15° WSW 19:28:39 15° WSW
NOSS 3-1 (C) 3.4 19:27:48 10° SSW 19:32:51 60° SSE 19:32:51 60° SSE
USA 215 3.2 19:40:52 51° SSE 19:42:41 79° SW 19:49:16 10° NW
Cosmos 1943 3.7 19:37:51 10° SSW 19:41:55 49° S 19:41:55 49° S
Lacrosse 5 4.2 19:46:25 10° NNW 19:47:19 13° N 19:47:19 13° N
ATLAS 5 CENTAUR R/B 4.0 19:45:12 10° NNW 19:47:22 21° N 19:47:22 21° N
Cosmos 2026 Rocket 4.2 19:45:28 10° SSW 19:51:38 66° W 19:55:59 20° N
ALOS 4.0 19:57:11 10° SSW 20:01:16 30° W 20:05:23 10° NW
Cosmos 1943 Rocket 4.5 20:02:08 10° NNW 20:02:44 13° N 20:02:44 13° N
Cosmos 2369 Rocket 4.4 20:41:07 10° NW 20:42:51 19° NW 20:42:51 19° NW
